Regional Weather Roundup
Issued by NWS

Home | Current Version | Previous Version | Text Only | Print | Product List | Glossary On
Versions: 1 2 3 4 5 6 7 8 9 10 11 12 13 14 15 16 17 18 19 20 21 22 23 24 25 26 27 28 29 30 31 32 33 34 35 36 37 38 39 40 41 42 43 44 45 46 47 48 49 50
000
ASUS44 KFWD 040710
RWRTX
NORTH TEXAS HOURLY WEATHER ROUNDUP
NATIONAL WEATHER SERVICE FORT WORTH TX
200 AM CDT SAT JUL 04 2015

NOTE: "FAIR" INDICATES FEW OR NO CLOUDS BELOW 12,000 FEET WITH NO
SIGNIFICANT WEATHER AND/OR OBSTRUCTIONS TO VISIBILITY.

TXZ118-119-040800-
DALLAS/FORT WORTH METROPLEX

CITY           SKY/WX    TMP DP  RH WIND       PRES   REMARKS
DFW AIRPORT    PTCLDY    82  71  69 S16       29.93S
DALLAS LOVE    MOCLDY    83  71  67 SW7       29.93S
FTW MEACHAM    CLEAR     81  71  71 S15       29.93S
DAL-EXECUTIVE  PTCLDY    79  71  76 VRB5      29.94S
FTW-ALLIANCE   PTCLDY    80  70  71 S6        29.94R
FTW-NAS-JRB    CLEAR     80  72  76 S13       29.94S
FTW-SPINKS     CLEAR     79  71  76 S9        29.95S HAZE
ARLINGTON      CLEAR     81  71  71 S9        29.94S
GRAND PRAIRIE  CLEAR     80  73  77 S7        29.96R
ADDISON        CLEAR     82  73  73 SW7G16    29.96R
MESQUITE       PTCLDY    77  72  84 S7        29.94S
LANCASTER      PTCLDY    78  70  76 S5        29.95S
$$

TXZ091>094-102>105-117-120-121-131>134-040800-
NORTH CENTRAL TEXAS

CITY           SKY/WX    TMP DP  RH WIND       PRES   REMARKS
SHRMAN/DENISON CLEAR     76  72  87 S6        29.95S
GAINESVILLE    CLEAR     74  69  81 CALM      29.96S
BRIDGEPORT     CLEAR     79  69  73 S8        29.95S
DECATUR        CLEAR     78  67  68 S10       29.95S
DENTON         CLEAR     76  70  82 S5        29.93R
MCKINNEY       CLEAR     79  71  76 S8        29.94R
GREENVILLE     CLEAR     77  70  78 SW7       29.95R
ROCKWALL       CLEAR     80  73  78 SW9G20    29.94R
TERRELL        PTCLDY    78  72  81 S7        29.95S
WAXAHACHIE     PTCLDY    77  73  86 S8        29.96F
CLEBURNE       CLEAR     77  75  94 S9        29.97F
GRANBURY         N/A     80  70  72 S9        29.96S
$$

TXZ083>090-098>101-113>116-127>130-139>142-154-155-040800-
WESTERN NORTH TEXAS

CITY           SKY/WX    TMP DP  RH WIND       PRES   REMARKS
WICHITA FALLS  CLEAR     74  70  87 S5        29.93S
WF-KICKAPOO    CLEAR     77  70  79 S3        29.94S
VERNON         MOCLDY    75  65  71 CALM      29.96R
ABILENE        PTCLDY    78  64  61 S13       29.99S
ABILENE-DYESS  PTCLDY    77  65  65 S9        29.98S
BRECKENRIDGE   PTCLDY    78  64  62 S7        29.96R
GRAHAM         PTCLDY    78  68  71 CALM      29.94S
MINERAL WELLS  CLEAR     73  69  87 SE5       29.94R
STEPHENVILLE   CLEAR     75  67  78 CALM      30.01R
COMANCHE       PTCLDY    76  69  78 S13G21    29.98S
BROWNWOOD      CLOUDY    75  66  73 S7        29.99F
COLEMAN        PTCLDY    74  67  77 S7        30.01R
BRADY          CLEAR     75  68  78 N7        30.01S
$$

TXZ143>147-156>162-174-175-040800-
CENTRAL TEXAS

CITY           SKY/WX    TMP DP  RH WIND       PRES   REMARKS
WACO           PTCLDY    78  72  81 S12       29.96S
WACO-MCGREGOR  PTCLDY    77  70  78 S8        29.99R
HILLSBORO      PTCLDY    76  70  82 S6        29.97S
CORSICANA      MOCLDY    80  72  76 S9        29.97R
MEXIA          CLOUDY    77  73  86 SE9G16    29.97R
HEARNE         PTCLDY    75  74  96 SE6       29.98F FOG
CAMERON        PTCLDY    76  73  91 S5        29.97S
TEMPLE         PTCLDY    75  70  83 S9        29.98R
KILLEEN        CLEAR     76  71  84 S8        29.98S
KILLEEN-SKYLRK CLEAR     75  66  73 S6        29.98R
FORT HOOD      CLEAR     77  70  80 S8        29.97R
GATESVILLE     CLEAR     79  70  73 S8        30.00S
HAMILTON       CLEAR     75  69  81 MISG      30.00S
$$

TXZ095>097-106>112-122>126-135>138-148>153-164>167-040800-
EAST TEXAS

CITY           SKY/WX    TMP DP  RH WIND       PRES   REMARKS
PARIS          CLOUDY    77  70  78 SW7       29.93S
SULPHUR SPRNGS PTCLDY    79  73  81 SW7       29.96R
MOUNT PLEASANT MOCLDY    78  74  88 SW6       29.95S
GILMER         MOCLDY    77  72  84 S6        29.95S
MINEOLA        PTCLDY    79  73  83 S8        29.95F
TYLER          PTCLDY    79  72  79 S13       29.95S
LONGVIEW       PTCLDY    81  73  76 S12       29.94F
MARSHALL       PTCLDY    76  73  90 S3        29.98S
ATHENS         MOCLDY    77  72  83 S5        29.96S
PALESTINE      CLOUDY    79  73  83 S8        29.98S
JACKSONVILLE   MOCLDY    77  73  88 S8        30.00S
HENDERSON      PTCLDY    76  73  91 S3        29.98S
CENTER         FAIR      77  73  88 S7        29.97S
NACOGDOCHES    MOCLDY   N/A N/A N/A S6        29.97S
LUFKIN         PTCLDY    79  74  84 S3        29.98F
$$

SUPPLEMENTAL OBSERVATIONS (CENTRAL)

CITY           SKY/WX    TMP DP  RH WIND       PRES   REMARKS
CADDO GRASSLND   N/A     79  73  83 S8          N/A
PAT MAYSE LAKE   N/A     81  75  83 S12         N/A
MCGREGOR         N/A     75  72  88 S6          N/A
TEMPLE           N/A     75  72  88 S8          N/A
$$

SUPPLEMENTAL OBSERVATIONS (WEST)

CITY           SKY/WX    TMP DP  RH WIND       PRES   REMARKS
MILLERS CREEK    N/A     79  68  69 SW5         N/A
POSSUM KINGDOM   N/A     79  64  61 S8          N/A
LBJ GRASSLAND    N/A     75  68  78 SE5         N/A
GRANBURY         N/A     79  68  69 S12         N/A
HAMBY            N/A     77  63  61 S8          N/A
IVIE RESERVOIR   N/A     77  66  69 S8          N/A
COLORADO BEND    N/A     75  68  78 SW6         N/A
$$

SUPPLEMENTAL OBSERVATIONS (EAST)

CITY           SKY/WX    TMP DP  RH WIND       PRES   REMARKS
TEXARKANA        N/A     77  73  88 S5          N/A
LINDEN           N/A     77  72  83 SW2         N/A
LUFKIN           N/A     75  72  88 MISG        N/A
N SABINE NF      N/A     75  72  88 MISG        N/A
$$

SUPPLEMENTAL OBSERVATIONS ARE A COLLECTION OF AUTOMATED INSTRUMENTS
THAT ARE MAINTAINED BY A VARIETY OF FEDERAL AND STATE AGENCIES.
CERTAIN ELEMENTS...SUCH AS HUMIDITY VALUES AND SUSTAINED WIND
SPEEDS...MAY BE APPROXIMATED.



USA.gov is the U.S. government's official web portal to all federal, state and local government web resources and services.